Regional Weather Roundup
Issued by NWS

Home | Current Version | Previous Version | Text Only | Print | Product List | Glossary Off
Versions: 1 2 3 4 5 6 7 8 9 10 11 12 13 14 15 16 17 18 19 20 21 22 23 24 25 26 27 28 29 30 31 32 33 34 35 36 37 38 39 40 41 42 43 44 45 46 47 48 49 50

000
ASUS43 KLMK 221310
RWRKY
KENTUCKY REGIONAL WEATHER ROUNDUP
NATIONAL WEATHER SERVICE LOUISVILLE KY
900 AM EDT TUE JUL 22 2014

NOTE "FAIR" INDICATES FEW OR NO CLOUDS BELOW 12,000 FEET
WITH NO SIGNIFICANT WEATHER AND/OR OBSTRUCTIONS TO VISIBILITY.

KYZ001>023-026-027-061>063-070>075-221400-
WESTERN AND SOUTH CENTRAL KENTUCKY

CITY           SKY/WX    TMP DP  RH WIND       PRES   REMARKS
PADUCAH        SUNNY     76  69  79 CALM      30.10R HAZE
HENDERSON      SUNNY     73  70  88 CALM      30.09F
OWENSBORO      SUNNY     76  69  79 CALM      30.11S
HOPKINSVILLE   DRIZZLE   75  70  85 E3        30.11R
BOWLING GREEN  SUNNY     78  70  76 S5        30.12R
GLASGOW        SUNNY     76  71  82 SW5       30.14R
$$

KYZ024-025-028>034-038-045-046-053-221400-
NORTH CENTRAL KENTUCKY

CITY           SKY/WX    TMP DP  RH WIND       PRES   REMARKS
LOUISVILLE/SDF MOSUNNY   76  69  79 CALM      30.12R HAZE
LOUISVILLE/LOU PTSUNNY   76  69  79 CALM      30.13R
FORT KNOX      LGT RAIN  76  69  77 E3        30.12S
$$

KYZ035>037-039>044-047>052-055>060-089>105-221400-
NORTHEAST KENTUCKY

CITY           SKY/WX    TMP DP  RH WIND       PRES   REMARKS
LEXINGTON      SUNNY     78  71  79 SE8       30.14S
COVINGTON      MOSUNNY   78  70  76 CALM      30.14S
FRANKFORT      SUNNY     76  69  79 CALM      30.13R
$$

KYZ054-064>069-076>088-106>120-221400-
SOUTHEAST KENTUCKY

CITY           SKY/WX    TMP DP  RH WIND       PRES   REMARKS
JACKSON        SUNNY     74  66  76 SE3       30.18R
LONDON         SUNNY     76  68  76 CALM      30.18R
SOMERSET       SUNNY     73  72  94 CALM      30.17S
MIDDLESBORO    PTSUNNY   73  68  86 CALM      30.20R
MONTICELLO     SUNNY     77  72  84 CALM      30.18R
$$



USA.gov is the U.S. government's official web portal to all federal, state and local government web resources and services.